Wind_Speed
26 26 27 31 33 32 29 31 30 31 27 24 22 20 21 21 20 21 22 22 23 22 22 23 24 25 26 26 28 29 27 26 26 30 31 30 33 31 33 40 35 32 41 40 39
28 26 29 28 28 28 28 27 28 31 29 25 23 21 22 21 22 23 23 24 24 24 24 25 26 27 27 27 28 27 26 27 26 28 33 37 35 35 31 30 35 37 36 35 34
28 29 29 27 26 26 27 28 29 29 28 24 23 22 23 22 24 23 23 23 22 23 23 24 25 26 28 29 29 29 29 29 28 28 31 31 31 35 31 32 30 35 35 41 39
28 26 26 25 25 27 28 27 25 25 25 24 23 24 25 24 24 23 23 22 22 22 23 23 23 25 28 29 28 29 29 31 31 32 32 32 28 30 29 30 32 34 33 38 48
28 25 22 22 24 24 25 24 23 23 23 23 24 25 25 23 24 24 23 23 23 24 24 25 25 25 26 27 27 28 29 30 31 33 33 34 33 32 31 32 31 31 36 38 40
30 26 25 25 24 24 25 24 24 24 23 23 23 24 25 24 24 24 24 24 24 25 26 26 27 26 27 27 32 30 28 31 32 31 30 33 32 33 33 34 34 33 35 37 40
31 30 29 27 25 25 26 26 26 26 26 25 25 25 25 27 24 25 25 25 26 26 28 27 28 29 29 29 31 32 29 31 34 33 33 31 33 35 30 35 34 32 34 37 40
32 32 33 30 27 27 28 28 28 28 27 27 28 28 27 27 27 26 27 27 27 28 28 27 30 31 32 31 31 33 33 34 34 33 35 32 36 34 33 37 31 32 34 37 39
33 34 35 31 29 30 31 31 30 30 29 28 28 29 30 31 30 32 30 29 29 29 28 28 31 32 32 32 33 37 40 37 34 36 36 36 36 33 35 37 32 35 36 38 39
31 30 33 35 32 33 31 31 32 32 31 31 31 31 32 32 31 32 32 33 33 33 33 32 33 35 37 38 42 41 40 38 37 37 37 36 39 35 38 38 33 33 38 40 40
34 34 33 35 33 34 34 32 32 32 33 34 32 32 33 33 34 34 32 34 36 38 37 34 34 38 38 40 42 42 40 39 41 40 37 39 39 35 39 38 34 35 37 40 40
33 32 32 36 34 35 34 32 32 31 31 31 31 31 32 31 31 32 35 36 37 39 39 39 45 42 38 38 40 41 40 40 42 42 39 40 40 40 37 40 35 36 37 41 42
34 34 32 34 36 36 35 34 33 34 33 35 34 32 35 33 34 32 33 33 35 37 39 43 49 44 45 45 45 47 44 44 46 45 40 42 43 44 41 43 36 36 40 43 46
34 33 33 32 37 39 37 37 37 38 38 38 36 36 39 42 41 38 39 40 41 43 39 48 48 48 48 49 52 51 51 49 49 49 45 45 44 45 45 46 41 39 41 45 50
38 36 33 32 35 41 40 41 43 41 40 41 39 42 44 47 46 43 46 47 47 47 42 54 51 51 48 53 53 53 55 53 53 54 50 49 46 43 48 48 47 41 41 42 46
36 41 40 38 37 38 41 44 46 44 42 40 44 47 49 50 48 48 50 50 51 50 49 57 56 51 52 52 51 52 55 55 55 56 52 50 52 45 49 53 51 43 40 41 45
29 33 38 43 45 44 44 46 45 42 43 44 47 50 54 51 53 54 54 55 56 56 56 55 56 53 55 53 57 57 57 58 57 57 50 55 54 45 50 60 52 46 47 46 47
32 31 32 36 40 44 49 50 50 48 51 53 51 53 56 54 57 57 58 58 60 59 56 52 51 59 60 55 60 61 62 60 59 58 54 58 51 45 54 57 57 57 51 50 51
37 36 34 35 37 39 40 40 41 42 45 46 46 45 48 47 51 56 57 57 56 58 58 59 51 60 57 60 61 64 63 65 64 62 60 57 57 54 60 60 63 61 55 53 53
42 41 41 40 42 43 42 41 40 46 49 49 51 49 51 55 59 58 66 58 60 61 57 57 59 64 67 65 64 65 67 70 70 69 66 61 62 61 66 66 65 62 57 57 57
46 47 46 47 47 49 50 48 47 51 54 55 57 57 58 60 65 67 67 65 67 68 66 62 61 61 67 70 69 73 70 73 73 71 69 65 63 66 68 69 67 65 61 60 61
46 49 47 49 52 56 55 54 52 56 59 61 62 63 65 66 71 73 76 73 74 74 76 73 69 62 63 72 77 80 79 81 83 76 77 75 69 66 67 73 73 68 62 58 51
47 50 50 52 54 54 56 57 59 62 65 68 70 72 73 74 77 78 80 79 78 81 81 81 80 69 67 72 78 80 80 83 83 79 76 80 68 73 77 78 73 68 50 27 39
49 51 54 55 58 60 61 62 63 66 68 71 75 77 78 80 81 81 82 83 85 86 86 86 85 83 73 73 81 83 81 87 91 87 84 88 79 82 81 81 76 70 64 57 60
52 51 53 56 60 63 65 68 72 73 75 76 80 82 84 85 85 87 88 86 87 91 92 93 89 93 88 80 80 82 83 87 92 91 93 88 86 82 86 84 78 75 71 67 65
52 54 55 57 62 67 70 72 73 79 81 83 84 88 91 93 93 93 95 97 94 94 97 100 97 98 93 94 92 83 83 89 97 100 100 97 89 87 87 85 83 79 77 76 72
52 55 59 62 65 68 70 73 76 81 85 87 89 92 96 98 98 100 101 100 102 103 102 103 106 104 93 96 98 90 87 92 98 103 102 101 95 92 90 86 82 82 79 73 71
Wind_Direction
219 224 225 226 232 241 246 238 244 245 251 249 256 252 247 243 241 243 244 242 240 239 239 240 242 243 243 246 248 252 254 254 247 243 240 245 248 249 249 249 243 238 255 266 266
217 221 221 225 233 240 245 248 251 247 254 257 245 245 244 243 246 244 245 241 239 237 238 240 241 242 243 243 248 253 253 252 249 248 243 242 247 249 249 248 245 246 237 250 247
223 223 226 229 236 243 244 248 250 248 246 240 240 241 245 246 248 249 248 246 242 240 236 237 239 241 244 246 245 248 250 250 252 250 250 248 249 247 245 250 250 250 241 229 233
221 226 233 238 244 251 251 248 242 240 237 232 237 244 248 249 251 249 246 247 247 245 244 240 239 243 244 244 246 247 249 252 253 253 255 256 249 255 255 250 248 252 247 241 241
225 227 233 246 252 255 245 235 232 230 229 232 240 247 252 253 252 250 252 250 248 245 242 243 241 242 248 250 248 247 250 253 256 259 259 258 256 250 248 248 244 250 256 253 244
231 228 230 244 252 251 234 224 224 225 229 236 242 249 254 252 251 254 254 251 248 245 243 245 244 242 244 249 253 251 253 256 255 258 261 262 261 259 252 253 251 246 250 255 259
228 231 234 244 253 245 230 227 228 229 232 238 246 249 251 251 254 256 256 256 256 251 249 250 245 245 246 247 256 260 254 258 261 260 259 262 264 264 264 259 259 256 252 250 251
231 234 236 242 250 237 229 230 232 236 238 243 248 249 248 252 253 257 258 258 257 254 252 250 247 247 249 250 249 254 256 254 260 264 265 267 266 270 272 270 267 262 260 258 255
233 239 241 242 252 237 231 234 238 240 246 249 251 248 246 249 249 249 252 256 256 254 252 250 251 250 249 248 248 248 252 259 263 264 267 268 273 274 274 274 279 279 277 272 273
236 244 241 241 251 237 235 240 242 244 247 250 252 250 248 249 253 253 253 252 251 252 254 256 255 252 249 248 249 253 256 260 261 262 263 265 269 273 275 276 279 281 280 278 276
238 242 243 239 247 236 239 245 245 245 249 251 250 251 251 250 250 253 253 253 255 254 255 259 256 252 253 253 254 254 254 254 256 258 263 265 268 268 271 275 274 275 278 279 276
245 245 248 244 241 237 242 244 246 245 246 249 249 248 249 249 250 249 253 254 256 256 256 253 251 257 259 259 257 252 252 255 257 257 261 267 269 267 268 271 270 273 276 277 277
249 247 249 247 238 237 243 244 245 247 247 254 253 250 253 253 253 255 256 258 260 259 257 256 257 259 258 256 256 253 250 253 257 257 259 265 268 269 266 267 265 268 272 275 276
250 251 252 250 240 240 243 246 248 248 253 255 258 258 257 255 254 255 259 265 264 262 264 260 261 259 259 259 257 257 255 254 258 260 260 260 265 268 265 263 266 267 273 276 279
248 249 249 250 248 243 245 247 250 250 253 258 259 258 257 256 258 260 265 266 264 266 265 261 261 258 259 257 258 258 259 257 258 261 260 263 262 263 267 267 262 261 270 276 279
252 251 251 250 250 249 248 249 251 252 254 258 258 257 255 256 259 262 263 265 264 264 263 260 261 262 258 260 263 260 262 261 259 261 263 264 260 260 268 268 270 267 267 272 273
257 257 255 253 253 252 251 253 255 256 253 251 254 259 262 264 265 263 259 260 263 262 260 260 265 265 261 260 262 262 260 262 263 264 264 265 264 264 267 268 271 275 270 269 272
259 262 260 258 258 257 257 258 260 259 258 256 255 258 262 263 263 263 262 260 257 260 261 259 262 264 263 262 261 264 265 266 266 266 263 263 273 270 267 273 272 269 270 274 271
260 262 264 264 263 263 262 261 262 261 260 258 254 253 257 262 266 268 267 267 268 265 264 263 259 265 266 268 265 265 266 265 264 264 265 266 266 264 268 269 271 275 279 278 276
261 264 266 267 267 265 263 261 262 265 263 263 265 261 264 267 268 268 271 272 274 274 269 266 260 262 264 262 265 262 260 262 263 262 262 259 262 267 267 268 272 276 277 278 277
265 265 267 268 270 268 267 263 262 265 267 268 268 270 270 271 272 272 272 274 274 273 270 266 261 255 259 267 262 263 260 262 262 263 263 259 260 263 268 270 269 270 274 277 278
266 268 268 270 271 271 271 272 268 268 271 273 274 274 274 274 274 275 276 276 274 271 272 270 267 263 260 260 262 262 262 261 262 263 263 265 263 262 265 268 268 271 276 285 282
267 271 271 272 274 277 277 277 276 274 275 275 275 276 277 277 276 275 275 274 272 273 273 273 271 264 261 258 259 261 265 267 266 265 265 265 263 265 263 265 270 274 273 274 266
267 270 273 273 273 274 276 276 276 278 278 278 278 278 277 276 275 275 275 275 276 275 273 271 270 267 259 255 258 260 261 265 267 267 265 266 266 267 266 267 265 265 263 257 250
272 274 279 280 279 280 280 280 281 279 278 277 278 277 277 278 278 278 275 271 271 272 270 269 269 269 267 260 255 256 259 262 264 265 264 264 265 264 267 269 270 270 272 269 269
278 279 279 280 281 282 283 284 284 284 284 283 282 279 278 277 276 275 275 275 274 270 269 270 269 267 266 267 265 261 258 258 262 263 263 263 261 261 265 268 271 272 270 271 269
277 278 279 281 282 284 286 286 286 286 286 286 284 284 284 284 283 282 280 278 276 275 272 272 271 268 264 265 265 263 258 259 259 261 263 264 264 263 261 262 264 266 267 267 266
Height
10887 10889 10892 10894 10896 10899 10902 10904 10905 10907 10909 10911 10913 10914 10915 10916 10918 10919 10920 10920 10921 10923 10923 10924 10925 10926 10928 10931 10930 10930 10935 10938 10940 10940 10942 10943 10944 10947 10950 10956 10954 10956 10954 10959 10957
10883 10886 10888 10890 10893 10895 10897 10899 10900 10902 10904 10906 10908 10909 10911 10913 10914 10914 10916 10916 10917 10919 10920 10920 10921 10921 10923 10925 10925 10927 10929 10930 10931 10933 10937 10935 10940 10942 10946 10950 10945 10952 10953 10955 10953
10880 10882 10885 10887 10889 10891 10893 10894 10896 10897 10899 10902 10903 10904 10906 10908 10909 10911 10912 10912 10913 10914 10916 10916 10916 10917 10917 10920 10921 10921 10923 10924 10925 10925 10927 10931 10933 10935 10940 10942 10941 10943 10947 10949 10952
10875 10878 10880 10883 10885 10886 10888 10889 10890 10892 10895 10897 10898 10899 10901 10903 10905 10907 10908 10909 10909 10910 10911 10912 10912 10912 10912 10914 10916 10916 10917 10918 10919 10920 10921 10923 10929 10930 10935 10937 10936 10937 10940 10942 10944
10871 10873 10876 10878 10880 10881 10882 10884 10886 10888 10891 10893 10894 10894 10896 10899 10900 10902 10903 10904 10905 10906 10906 10907 10908 10908 10908 10908 10910 10910 10910 10912 10912 10913 10915 10915 10919 10926 10928 10929 10933 10934 10931 10934 10936
10866 10869 10871 10873 10875 10876 10878 10880 10883 10885 10887 10889 10889 10889 10891 10893 10895 10896 10898 10899 10901 10902 10902 10903 10903 10904 10903 10904 10902 10906 10906 10905 10907 10908 10909 10909 10911 10912 10919 10920 10925 10928 10927 10926 10923
10860 10863 10865 10868 10870 10871 10874 10876 10878 10880 10882 10884 10884 10884 10887 10887 10889 10891 10892 10893 10895 10896 10898 10899 10899 10899 10899 10900 10898 10898 10901 10900 10899 10900 10902 10903 10902 10902 10910 10909 10915 10919 10918 10917 10918
10854 10856 10859 10862 10864 10866 10869 10871 10873 10875 10876 10877 10878 10879 10881 10882 10883 10884 10886 10887 10888 10890 10892 10894 10894 10894 10894 10895 10894 10893 10892 10892 10893 10894 10893 10896 10894 10898 10899 10897 10908 10909 10909 10906 10908
10848 10850 10853 10857 10858 10861 10863 10865 10867 10869 10870 10871 10871 10873 10874 10875 10876 10876 10878 10880 10882 10883 10884 10887 10887 10888 10888 10888 10888 10886 10885 10887 10889 10888 10889 10889 10888 10890 10890 10890 10896 10893 10893 10892 10892
10842 10844 10847 10850 10852 10855 10857 10859 10860 10862 10863 10863 10864 10866 10867 10868 10869 10870 10872 10873 10874 10875 10877 10879 10880 10880 10880 10880 10877 10880 10881 10882 10881 10880 10881 10883 10882 10884 10882 10883 10888 10885 10880 10879 10882
10834 10837 10840 10843 10845 10847 10850 10852 10853 10855 10855 10856 10857 10858 10859 10861 10862 10862 10864 10865 10866 10867 10869 10872 10871 10867 10871 10872 10872 10873 10874 10874 10872 10872 10875 10875 10876 10879 10875 10877 10881 10878 10873 10871 10872
10828 10830 10833 10835 10838 10840 10842 10844 10845 10846 10848 10848 10849 10850 10850 10853 10853 10855 10855 10857 10858 10859 10862 10863 10856 10860 10864 10864 10864 10865 10866 10865 10863 10864 10868 10867 10868 10869 10871 10868 10875 10871 10865 10861 10863
10821 10823 10825 10827 10830 10832 10834 10835 10837 10838 10839 10839 10840 10844 10843 10845 10845 10848 10846 10848 10848 10849 10851 10851 10846 10853 10853 10853 10852 10853 10857 10855 10853 10855 10860 10858 10858 10858 10861 10857 10867 10864 10857 10854 10852
10814 10816 10818 10819 10822 10823 10826 10828 10828 10829 10830 10831 10833 10835 10834 10833 10835 10837 10838 10838 10838 10837 10843 10837 10837 10839 10841 10841 10840 10842 10843 10846 10844 10846 10850 10851 10851 10849 10846 10849 10854 10854 10850 10846 10842
10806 10807 10809 10810 10812 10814 10817 10817 10817 10820 10824 10823 10826 10822 10821 10820 10824 10828 10826 10826 10825 10826 10833 10817 10823 10825 10830 10826 10829 10831 10829 10834 10835 10834 10838 10840 10843 10837 10833 10836 10841 10848 10846 10840 10832
10796 10798 10800 10801 10803 10804 10804 10805 10806 10812 10816 10817 10810 10806 10805 10808 10813 10817 10814 10812 10812 10812 10816 10804 10808 10818 10817 10817 10819 10818 10816 10819 10821 10820 10827 10825 10825 10830 10824 10819 10825 10836 10838 10832 10826
10788 10789 10789 10790 10792 10792 10793 10794 10796 10804 10804 10803 10798 10795 10795 10801 10797 10798 10799 10798 10794 10795 10797 10802 10801 10806 10806 10809 10803 10804 10804 10805 10808 10809 10817 10806 10810 10823 10813 10802 10814 10820 10820 10822 10820
10779 10780 10779 10780 10780 10780 10782 10784 10787 10791 10787 10787 10790 10788 10783 10782 10780 10778 10778 10780 10778 10779 10787 10794 10796 10787 10788 10796 10791 10789 10789 10792 10792 10793 10798 10794 10803 10810 10796 10793 10795 10800 10808 10810 10808
10769 10770 10770 10770 10770 10769 10770 10774 10776 10777 10771 10771 10774 10775 10771 10772 10765 10762 10760 10762 10767 10771 10777 10776 10788 10770 10777 10773 10776 10775 10774 10771 10773 10776 10779 10784 10785 10790 10780 10780 10777 10784 10792 10793 10793
10758 10760 10760 10760 10759 10757 10759 10764 10768 10759 10756 10757 10757 10763 10760 10756 10751 10752 10737 10756 10754 10754 10762 10764 10769 10763 10752 10756 10755 10754 10752 10748 10751 10753 10759 10769 10769 10772 10764 10765 10768 10770 10773 10775 10776
10747 10748 10748 10748 10747 10744 10746 10751 10753 10746 10743 10742 10742 10746 10745 10741 10730 10730 10735 10738 10736 10732 10735 10741 10744 10751 10742 10734 10736 10726 10733 10727 10726 10730 10737 10749 10755 10749 10747 10746 10749 10755 10761 10762 10762
10737 10734 10738 10736 10733 10730 10732 10732 10738 10733 10728 10726 10726 10728 10726 10724 10713 10712 10709 10717 10713 10711 10706 10712 10720 10733 10735 10722 10708 10705 10710 10704 10701 10717 10714 10723 10734 10733 10730 10722 10727 10739 10747 10749 10745
10726 10722 10725 10724 10720 10717 10715 10716 10717 10717 10712 10710 10708 10706 10705 10701 10694 10692 10687 10689 10687 10682 10684 10685 10689 10707 10713 10706 10693 10689 10689 10684 10684 10691 10700 10692 10718 10708 10705 10706 10716 10721 10734 10741 10726
10716 10712 10711 10711 10706 10702 10700 10702 10702 10697 10696 10691 10686 10682 10681 10676 10673 10670 10665 10660 10656 10654 10655 10654 10656 10662 10682 10685 10675 10673 10676 10662 10656 10664 10674 10667 10687 10680 10682 10685 10695 10705 10713 10728 10730
10703 10702 10698 10693 10690 10685 10683 10680 10676 10676 10673 10671 10666 10661 10655 10647 10644 10638 10638 10639 10634 10624 10621 10621 10630 10622 10634 10649 10652 10655 10656 10645 10635 10637 10635 10650 10654 10662 10648 10662 10677 10683 10692 10699 10701
10690 10689 10685 10680 10671 10669 10664 10659 10655 10647 10643 10639 10636 10627 10623 10618 10616 10612 10604 10597 10601 10599 10591 10585 10598 10597 10610 10606 10613 10629 10634 10627 10610 10606 10605 10616 10633 10639 10642 10647 10650 10657 10662 10666 10675
10675 10673 10669 10666 10658 10653 10646 10639 10632 10624 10616 10612 10606 10597 10588 10582 10578 10573 10568 10571 10562 10559 10560 10559 10551 10553 10581 10577 10573 10591 10603 10597 10585 10576 10581 10586 10602 10610 10616 10626 10633 10633 10637 10646 10648